Regional Weather Roundup
Issued by NWS

Home | Current Version | Previous Version | Graphics & Text | Print | Product List | Glossary On
Versions: 1 2 3 4 5 6 7 8 9 10 11 12 13 14 15 16 17 18 19 20 21 22 23 24 25 26 27 28 29 30 31 32 33 34 35 36 37 38 39 40 41 42 43 44 45 46 47 48 49 50
000
ASUS45 KBOI 211210
RWRID
WEATHER ROUNDUP FOR IDAHO
NATIONAL WEATHER SERVICE BOISE ID
500 AM MST SUN DEC 21 2014

NOTE: "FAIR" INDICATES FEW OR NO CLOUDS BELOW 12000 FEET
WITH NO SIGNIFICANT WEATHER AND/OR OBSTRUCTIONS TO VISIBILITY

IDZ012-014-211300-
SOUTHWEST IDAHO


CITY           SKY/WX    TMP DP  RH WIND       PRES   REMARKS
BOISE          CLOUDY    42  39  89 SE7       29.84S
CALDWELL       CLOUDY    45  37  76 E7        29.84R
MOUNTAIN HOME  LGT RAIN  41  40  95 E9        29.86S
$$

IDZ016-017-211300-
SOUTHCENTRAL IDAHO


CITY           SKY/WX    TMP DP  RH WIND       PRES   REMARKS
BURLEY         CLOUDY    40  36  86 SW16G25   29.85F WCI  31
JEROME         LGT RAIN  40  39  97 SW10      29.86F WCI  33
TWIN FALLS     LGT RAIN  47  40  76 SW18G28   29.84F
$$

IDZ019>023-211300-
SOUTHEAST IDAHO


CITY           SKY/WX    TMP DP  RH WIND       PRES   REMARKS
IDAHO FALLS    CLOUDY    37  36  96 SW23G32   29.78F WCI  26
POCATELLO      LGT RAIN  40  37  89 SW21      29.82F WCI  30
REXBURG        MIX PCPN  34  34 100 SW20G29   29.75S FOG     WCI  23
$$

IDZ006-010-011-018-031-032-211300-
CENTRAL IDAHO MOUNTAINS


CITY           SKY/WX    TMP DP  RH WIND       PRES   REMARKS
MCCALL         LGT RAIN  33  31  92 NW6       29.71F WCI  28
HAILEY         LGT SNOW  32  32 100 CALM      29.83F
STANLEY          N/A     35  31  85 SE7       29.73F WCI  29
SALMON         CLOUDY    34  30  86 N9        29.61F WCI  26
CHALLIS        CLOUDY    38  33  82 S14       29.66F WCI  30
$$

IDZ002-004-006-007-026-211300-
NORTHERN IDAHO


CITY           SKY/WX    TMP DP  RH WIND       PRES   REMARKS
LEWISTON       LGT RAIN  60  41  49 W35G51    29.54R
LOWELL           N/A     39  37  92 CALM      29.65R
COEUR D`ALENE  CLOUDY    46  43  87 W17G23    29.49R
MULLAN PASS      N/A     34  32  92 MISG      29.46R
$$


USA.gov is the U.S. government's official web portal to all federal, state and local government web resources and services.